This demonstration page uses our WeatherBlox Daily Observations layout. Learn more.

Left ArrowRight Arrow

39.01783, -85.05884

Hourly Observations for January 15, 2022

Temp ( °F °C ) Dew Point ( °F °C ) Humidity (%) Winds ( mph kmh ) Pressure ( in mb ) Visibility ( mi km ) Precip ( " mm )
12:10 am 00:10 Cloudy 33 0.6 27 -2.8 78 78 ENE 8 13 30.18 1022 7 11 N/A
12:52 am 00:52 Cloudy 32 undefined 26 -3.3 79 79 NNE 12 19 30.15 1021 7 11 N/A
1:52 am 01:52 Cloudy 31 -0.6 24 -4.4 76 76 NNE 14 22 30.16 1022 10 16 N/A
2:52 am 02:52 Cloudy 31 -0.6 23 -5 72 72 NNE 10 17 30.17 1022 10 16 N/A
3:52 am 03:52 Cloudy 30 -1.1 21 -6.1 69 69 NNE 14 22 30.18 1022 10 16 N/A
4:52 am 04:52 Cloudy 29 -1.7 20 -6.7 69 69 NE 14 22 30.18 1022 10 16 N/A
5:52 am 05:52 Cloudy 28 -2.2 20 -6.7 72 72 NE 14 22 30.21 1023 10 16 N/A
6:52 am 06:52 Cloudy 27 -2.8 19 -7.2 72 72 NE 15 24 30.23 1024 10 16 N/A
7:52 am 07:52 Cloudy with Light Snow 26 -3.3 18 -7.8 71 71 NE 13 20 30.24 1024 5 8 0.00 0.00
8:52 am 08:52 Cloudy 26 -3.3 18 -7.8 71 71 NE 12 19 30.24 1024 10 16 0.00 0.00
9:52 am 09:52 Mostly Cloudy 28 -2.2 19 -7.2 69 69 NE 13 20 30.25 1024 10 16 N/A
10:52 am 10:52 Cloudy 27 -2.8 18 -7.8 69 69 ENE 13 20 30.26 1025 10 16 N/A
11:52 am 11:52 Cloudy 28 -2.2 18 -7.8 66 66 NE 12 19 30.27 1025 9 14 N/A
12:52 pm 12:52 Cloudy 30 -1.1 19 -7.2 64 64 NE 13 20 30.25 1025 9 14 N/A
1:52 pm 13:52 Cloudy 31 -0.6 19 -7.2 61 61 ENE 13 20 30.22 1023 9 14 N/A
2:52 pm 14:52 Mostly Cloudy 32 undefined 20 -6.7 61 61 ENE 13 20 30.21 1023 10 16 N/A
3:50 pm 15:50 Mostly Cloudy 30 -1 19 -7 64 64 NE 15 24 30.24 1024 10 16 N/A
3:52 pm 15:52 Mostly Cloudy 31 -0.6 19 -7.2 61 61 NE 13 20 30.21 1023 10 16 N/A
4:52 pm 16:52 Mostly Cloudy 29 -1.7 17 -8.3 61 61 NE 12 19 30.22 1023 10 16 N/A
5:24 pm 17:24 Mostly Cloudy 29 -1.7 17 -8.3 61 61 NE 14 22 30.25 1024 10 16 N/A
5:52 pm 17:52 Partly Cloudy 28 -2.2 16 -8.9 60 60 ENE 15 24 30.22 1023 10 16 N/A
6:52 pm 18:52 Clear 28 -2.2 16 -8.9 60 60 ENE 10 17 30.22 1023 10 16 N/A
7:52 pm 19:52 Clear 27 -2.8 15 -9.4 61 61 NE 14 22 30.22 1023 10 16 N/A
8:52 pm 20:52 Clear 27 -2.8 11 -11.7 51 51 NE 17 28 30.20 1023 10 16 N/A
9:52 pm 21:52 Clear 26 -3.3 10 -12.2 51 51 ENE 15 24 30.19 1023 10 16 N/A
10:52 pm 22:52 Clear 25 -3.9 10 -12.2 53 53 ENE 12 19 30.18 1022 10 16 N/A
11:52 pm 23:52 Clear 25 -3.9 9 -12.8 50 50 ENE 13 20 30.17 1022 10 16 N/A

Powered by AerisWeather